User: anonymous   Login
Location: Unspecified
(0.0000°N, 0.0000°E)
Time: 06:47:22
(UTC+02:00)
Language:

ARIANE 5 R/B - Orbit

View from above orbital plane
View from above orbital plane
View from above satellite
View from above satellite

Ground track
Ground track

The orbit data is extracted from the following two-line orbital elements,

1 28379U 04027B   16123.27692619 -.00000028 +00000-0 -22018-2 0  9994
2 28379 006.7699 102.7175 7297259 164.1443 254.4846 02.07921941089572
Epoch (UTC): 02 May 2016 06:38:46
Eccentricity: 0.7297259
inclination: 6.7699°
perigee height: 630 km
apogee height: 38473 km
right ascension of ascending node: 102.7175°
argument of perigee: 164.1443°
revolutions per day: 2.07921941
mean anomaly at epoch: 254.4846°
orbit number at epoch: 8957

The dashed part of the orbit path shows where the satellite is in the earth's shadow,  

DLR